DW4238 Weather Reports


time (UTC)temp
C
wind
direction
speed
KPH
gust
KPH
rain 1hr
cm
rain 24hr
cm
rain mn
cm
humidity
%
barometer
mb
20260506103119 24 188 6.4 12.9 0.00 0.00 0.00 90 1007.8
20260506102528 24 185 9.7 14.5 0.00 0.00 0.00 90 1007.7
20260506102121 24 185 6.4 14.5 0.00 0.00 0.00 90 1007.6
20260506101537 24 150 11.3 16.1 0.00 0.00 0.00 90 1007.5
20260506101047 24 172 8.0 16.1 0.00 0.00 0.00 90 1007.5
20260506100106 24 183 9.7 16.1 0.00 0.00 0.00 90 1007.2
20260506095548 24 186 9.7 19.3 0.00 0.00 0.00 90 1007.1
20260506094611 24 191 11.3 16.1 0.00 0.00 0.00 90 1007.1
20260506094122 24 155 12.9 17.7 0.00 0.00 0.00 89 1007.1
20260506093121 24 172 16.1 22.5 0.00 0.00 0.00 89 1007.1
20260506092631 24 170 11.3 16.1 0.00 0.00 0.00 90 1007.2
20260506092111 24 178 9.7 19.3 0.00 0.00 0.00 90 1007.2
20260506091539 24 196 11.3 19.3 0.00 0.00 0.00 90 1007.1
20260506091042 24 192 12.9 20.9 0.00 0.00 0.00 90 1007.0
20260506090045 24 179 11.3 19.3 0.00 0.00 0.00 90 1006.9
20260506085536 24 184 14.5 19.3 0.00 0.00 0.00 90 1006.9
20260506085123 24 174 14.5 19.3 0.00 0.00 0.00 90 1006.9
20260506084546 24 175 11.3 16.1 0.00 0.00 0.00 90 1006.9
20260506084035 24 170 11.3 16.1 0.00 0.00 0.00 90 1006.9
20260506083058 24 171 16.1 20.9 0.00 0.00 0.00 90 1006.8
20260506082608 24 171 16.1 24.1 0.00 0.00 0.00 90 1006.9
20260506082110 24 158 16.1 24.1 0.00 0.00 0.00 90 1006.9
20260506081534 24 178 14.5 24.1 0.00 0.00 0.00 90 1007.0
20260506081037 24 169 17.7 24.1 0.00 0.00 0.00 90 1006.9
20260506080108 24 139 12.9 27.4 0.00 0.00 0.00 90 1007.0
20260506073026 24 157 20.9 29.0 0.00 0.00 0.00 90 1007.2
20260506072539 24 200 19.3 29.0 0.00 0.00 0.00 90 1007.2
20260506071558 24 191 16.1 30.6 0.00 0.00 0.00 90 1007.3
20260506071116 24 147 20.9 30.6 0.00 0.00 0.00 90 1007.4
20260506070525 24 148 17.7 27.4 0.00 0.00 0.00 89 1007.5
20260506062024 24 158 17.7 27.4 0.00 0.00 0.00 89 1007.8
20260506061543 24 175 14.5 22.5 0.00 0.00 0.00 90 1007.9
20260506061052 24 148 16.1 22.5 0.00 0.00 0.00 89 1007.9
20260506060541 24 148 16.1 27.4 0.00 0.00 0.00 89 1007.9
20260506051040 24 150 17.7 24.1 0.00 0.00 0.00 89 1007.8
20260506050549 24 155 19.3 29.0 0.00 0.00 0.00 89 1007.8
20260506045053 24 162 16.1 22.5 0.00 0.00 0.00 89 1007.9
20260506044525 24 134 14.5 24.1 0.00 0.00 0.00 88 1007.9
20260506044028 25 162 16.1 24.1 0.00 0.00 0.00 88 1008.0
20260506043635 25 140 14.5 22.5 0.00 0.00 0.00 88 1008.0
20260506043046 25 157 16.1 25.7 0.00 0.00 0.00 87 1007.9
20260506042528 25 161 17.7 24.1 0.00 0.00 0.00 87 1008.0
20260506041601 25 154 17.7 24.1 0.00 0.00 0.00 88 1007.8
20260506041100 25 175 16.1 24.1 0.00 0.00 0.00 88 1007.8
20260506040610 25 169 12.9 20.9 0.00 0.00 0.00 88 1007.6
20260506040028 25 163 12.9 24.1 0.00 0.00 0.00 87 1007.5
20260506035539 25 166 14.5 24.1 0.00 0.00 0.00 87 1007.4
20260506034602 25 171 16.1 22.5 0.00 0.00 0.00 87 1007.2
20260506034112 25 184 16.1 22.5 0.00 0.00 0.00 86 1007.1
20260506033108 25 184 19.3 25.7 0.00 0.00 0.00 86 1006.9
20260506032549 25 150 20.9 29.0 0.00 0.00 0.00 86 1006.9
20260506032056 25 153 17.7 29.0 0.00 0.00 0.00 85 1006.9
20260506031526 25 165 19.3 30.6 0.00 0.00 0.00 85 1007.0
20260506031031 25 179 19.3 32.2 0.00 0.00 0.00 85 1006.9
20260506030035 25 181 16.1 25.7 0.00 0.00 0.00 85 1006.9
20260506025550 25 159 16.1 24.1 0.00 0.00 0.00 85 1006.9
20260506024545 25 165 12.9 27.4 0.00 0.00 0.00 84 1006.8
20260506024032 25 156 16.1 27.4 0.00 0.00 0.00 84 1006.8
20260506023053 25 172 12.9 24.1 0.00 0.00 0.00 84 1006.7
20260506022541 25 180 14.5 24.1 0.00 0.00 0.00 84 1006.6
20260506021601 25 186 14.5 19.3 0.00 0.00 0.00 83 1006.6
20260506021104 25 153 11.3 19.3 0.00 0.00 0.00 83 1006.6
20260506020043 26 167 14.5 24.1 0.00 0.00 0.00 83 1006.5
20260506015556 26 180 14.5 24.1 0.00 0.00 0.00 83 1006.5
20260506015054 26 171 12.9 19.3 0.00 0.00 0.00 83 1006.4
20260506014524 26 180 14.5 19.3 0.00 0.00 0.00 83 1006.2
20260506014036 26 163 14.5 22.5 0.00 0.00 0.00 83 1006.2
20260506013057 26 177 14.5 22.5 0.00 0.00 0.00 82 1006.0
20260506012600 26 175 14.5 25.7 0.00 0.00 0.00 82 1005.8
20260506012110 26 168 16.1 24.1 0.00 0.00 0.00 82 1005.8
20260506011528 26 165 16.1 27.4 0.00 0.00 0.00 82 1005.6
20260506011043 26 182 16.1 30.6 0.00 0.00 0.00 82 1005.6
20260506010104 26 152 20.9 27.4 0.00 0.00 0.00 81 1005.5
20260506005614 26 157 19.3 27.4 0.00 0.00 0.00 81 1005.4
20260506005116 26 166 17.7 25.7 0.00 0.00 0.00 81 1005.4
20260506004543 26 175 14.5 27.4 0.00 0.00 0.00 80 1005.4
20260506004024 26 146 17.7 27.4 0.00 0.00 0.00 80 1005.4
20260506003614 27 155 17.7 24.1 0.00 0.00 0.00 80 1005.3
20260506003041 27 155 17.7 24.1 0.00 0.00 0.00 80 1005.3
20260506002544 27 171 16.1 24.1 0.00 0.00 0.00 80 1005.4
20260506001608 27 172 17.7 29.0 0.00 0.00 0.00 79 1005.4
20260506001118 27 161 14.5 17.7 0.00 0.00 0.00 80 1005.3
20260506000555 27 175 11.3 29.0 0.00 0.00 0.00 80 1005.5
20260506000024 27 170 19.3 29.0 0.00 0.00 0.00 79 1005.5
20260505235535 27 158 11.3 27.4 0.00 0.00 0.00 80 1005.5
20260505234555 27 178 17.7 27.4 0.00 0.00 0.00 79 1005.3
20260505234058 27 165 19.3 29.0 0.00 0.00 0.00 79 1005.3
20260505233100 27 161 19.3 29.0 0.00 0.00 0.00 79 1005.3
20260505232603 27 160 20.9 29.0 0.00 0.00 0.00 78 1005.1
20260505231606 27 149 17.7 29.0 0.00 0.00 0.00 78 1005.3
20260505231034 27 158 16.1 24.1 0.00 0.00 0.00 78 1005.3
20260505225526 27 166 22.5 25.7 0.00 0.00 0.00 77 1005.1
20260505225133 28 166 14.5 27.4 0.00 0.00 0.00 77 1005.0
20260505224537 28 182 19.3 27.4 0.00 0.00 0.00 78 1004.9
20260505224042 28 180 14.5 27.4 0.00 0.00 0.00 78 1005.1
20260505223608 28 146 20.9 27.4 0.00 0.00 0.00 77 1005.1
20260505223034 28 205 20.9 29.0 0.00 0.00 0.00 74 1005.2
20260505222541 28 182 20.9 33.8 0.00 0.00 0.00 74 1005.3
20260505221601 28 150 17.7 32.2 0.00 0.00 0.00 74 1005.0
20260505221049 28 184 12.9 24.1 0.00 0.00 0.00 75 1005.0
20260505220050 28 167 19.3 35.4 0.00 0.00 0.00 75 1005.0
20260505215602 28 173 16.1 22.5 0.00 0.00 0.00 75 1005.1
20260505214539 28 185 19.3 25.7 0.00 0.00 0.00 74 1005.2
20260505214042 28 192 17.7 25.7 0.00 0.00 0.00 74 1005.3
20260505213049 29 196 19.3 33.8 0.00 0.00 0.00 73 1005.2
20260505212559 29 164 16.1 33.8 0.00 0.00 0.00 73 1005.4
20260505211621 28 191 20.9 27.4 0.00 0.00 0.00 73 1005.5
20260505211032 28 184 17.7 29.0 0.00 0.00 0.00 74 1005.6
20260505210053 29 201 16.1 24.1 0.00 0.00 0.00 74 1005.8
20260505205617 29 178 17.7 29.0 0.00 0.00 0.00 74 1005.9
20260505204617 28 192 19.3 29.0 0.00 0.00 0.00 74 1006.0
20260505204031 28 195 17.7 24.1 0.00 0.00 0.00 75 1006.0
20260505203054 28 181 17.7 25.7 0.00 0.00 0.00 75 1006.3
20260505202543 28 157 17.7 27.4 0.00 0.00 0.00 76 1006.3
20260505201604 28 207 17.7 29.0 0.00 0.00 0.00 75 1006.4
20260505201053 28 162 19.3 27.4 0.00 0.00 0.00 73 1006.5
20260505200052 28 195 16.1 27.4 0.00 0.00 0.00 76 1006.6
20260505195533 28 227 20.9 27.4 0.00 0.00 0.00 76 1006.6
20260505194601 28 170 16.1 29.0 0.00 0.00 0.00 76 1006.7
20260505194108 28 198 20.9 29.0 0.00 0.00 0.00 74 1006.7
20260505193115 28 219 16.1 33.8 0.00 0.00 0.00 75 1006.9
20260505192557 28 182 17.7 30.6 0.00 0.00 0.00 75 1006.8
20260505192103 28 184 16.1 27.4 0.00 0.00 0.00 76 1007.0
20260505191527 27 178 20.9 27.4 0.00 0.00 0.00 77 1007.0
20260505191140 27 205 19.3 25.7 0.00 0.00 0.00 76 1007.1
20260505190557 28 200 17.7 24.1 0.00 0.00 0.00 76 1007.1
20260505190030 28 184 17.7 32.2 0.00 0.00 0.00 76 1007.1
20260505185540 28 225 16.1 32.2 0.00 0.00 0.00 76 1007.1
20260505184601 28 199 17.7 29.0 0.00 0.00 0.00 77 1007.3
20260505184118 28 182 20.9 32.2 0.00 0.00 0.00 76 1007.3
20260505183116 27 205 14.5 24.1 0.00 0.00 0.00 78 1007.5
20260505182621 27 184 12.9 25.7 0.00 0.00 0.00 79 1007.5
20260505181622 27 257 20.9 25.7 0.00 0.00 0.00 77 1007.6
20260505181025 27 227 16.1 29.0 0.00 0.00 0.00 78 1007.6
20260505180042 27 213 19.3 35.4 0.00 0.00 0.00 78 1007.6
20260505175553 27 207 20.9 33.8 0.00 0.00 0.00 78 1007.6
20260505175055 27 191 19.3 32.2 0.00 0.00 0.00 78 1007.7
20260505174525 27 219 16.1 24.1 0.00 0.00 0.00 79 1007.8
20260505174035 26 164 17.7 24.1 0.00 0.00 0.00 79 1007.9
20260505173055 27 232 19.3 33.8 0.00 0.00 0.00 77 1007.8
20260505172556 27 211 17.7 33.8 0.00 0.00 0.00 79 1007.8
20260505171624 27 202 22.5 35.4 0.00 0.00 0.00 78 1007.9
20260505171030 26 195 17.7 27.4 0.00 0.00 0.00 80 1007.9
20260505170637 26 232 12.9 27.4 0.00 0.00 0.00 81 1008.1
20260505170038 26 216 14.5 33.8 0.00 0.00 0.00 82 1008.1
20260505165546 26 211 20.9 33.8 0.00 0.00 0.00 82 1008.1
20260505164606 26 223 17.7 29.0 0.00 0.00 0.00 83 1008.2
20260505164056 25 210 16.1 25.7 0.00 0.00 0.00 83 1008.1
20260505163056 25 202 12.9 33.8 0.00 0.00 0.00 84 1008.2
20260505162606 25 242 20.9 33.8 0.00 0.00 0.00 83 1008.1
20260505162111 25 213 14.5 30.6 0.00 0.00 0.00 85 1008.2
20260505161537 25 215 19.3 30.6 0.00 0.00 0.00 85 1008.2
20260505161044 25 221 16.1 29.0 0.00 0.00 0.00 86 1008.2
20260505153118 23 209 9.7 20.9 0.00 0.00 0.00 88 1008.0
20260505152527 23 207 16.1 20.9 0.00 0.00 0.00 88 1008.1
20260505152131 23 198 16.1 20.9 0.00 0.00 0.00 88 1008.1
20260505151540 23 209 11.3 20.9 0.00 0.00 0.00 88 1008.1
20260505151053 23 199 16.1 20.9 0.00 0.00 0.00 88 1008.0
20260505140120 23 196 11.3 20.9 0.00 0.00 0.00 89 1007.8
20260505130116 22 173 16.1 27.4 0.00 0.00 0.00 90 1007.3
20260505124626 22 190 17.7 25.7 0.00 0.00 0.00 90 1007.3
20260505124116 22 219 16.1 25.7 0.00 0.00 0.00 91 1007.4
20260505123618 22 180 16.1 24.1 0.00 0.00 0.00 90 1007.3
20260505123028 22 163 12.9 22.5 0.00 0.00 0.00 91 1007.3
20260505122536 22 215 14.5 24.1 0.00 0.00 0.00 91 1007.4
20260505121634 22 213 14.5 24.1 0.00 0.00 0.00 91 1007.0
20260505121054 22 191 14.5 25.7 0.00 0.00 0.00 91 1006.9
20260505120601 21 215 16.1 24.1 0.00 0.00 0.00 91 1006.9
20260505120024 21 208 12.9 24.1 0.00 0.00 0.00 91 1007.0
20260505115635 21 202 12.9 24.1 0.00 0.00 0.00 91 1007.1
20260505114614 21 207 16.1 22.5 0.00 0.00 0.00 91 1007.1
20260505114058 21 204 16.1 27.4 0.00 0.00 0.00 91 1007.0
20260505113608 21 194 16.1 27.4 0.00 0.00 0.00 91 1007.1
20260505112533 21 200 17.7 25.7 0.00 0.00 0.00 91 1006.9
20260505111553 21 200 16.1 27.4 0.00 0.00 0.00 91 1007.0
20260505111100 21 202 16.1 32.2 0.00 0.00 0.00 91 1006.8
20260505110557 21 189 19.3 29.0 0.00 0.00 0.00 91 1006.7